This demonstration page uses our WeatherBlox Daily Observations layout. Learn more.

Left ArrowRight Arrow

44.8408, -93.29828

Hourly Observations for June 16, 2017

Temp ( °F °C ) Dew Point ( °F °C ) Humidity (%) Winds ( mph kmh ) Pressure ( in mb ) Visibility ( mi km ) Precip ( " mm )
12:53 am 00:53 Clear 73 22.8 55 12.8 53 53 S 3 6 29.73 1007 10 16 0.00 0.00
1:53 am 01:53 Clear 68 20 56 13.3 65 65 SE 3 6 29.73 1007 10 16 0.00 0.00
2:53 am 02:53 Clear 69 20.6 55 12.8 61 61 Calm 29.70 1006 10 16 0.00 0.00
3:53 am 03:53 Clear 65 18.3 56 13.3 73 73 W 3 6 29.70 1006 10 16 0.00 0.00
4:53 am 04:53 Mostly Cloudy 69 20.6 54 12.2 59 59 SW 5 7 29.70 1006 10 16 0.00 0.00
5:53 am 05:53 Mostly Cloudy 70 21.1 54 12.2 57 57 WSW 6 9 29.71 1006 10 16 0.00 0.00
6:53 am 06:53 Mostly Cloudy 71 21.7 53 11.7 53 53 WSW 7 11 29.72 1006 10 16 0.00 0.00
7:53 am 07:53 Cloudy 72 22.2 54 12.2 53 53 SW 14 22 29.73 1007 10 16 0.00 0.00
8:53 am 08:53 Mostly Cloudy 74 23.3 52 11.1 46 46 WSW 14 22 29.73 1007 10 16 0.00 0.00
9:53 am 09:53 Cloudy 74 23.3 54 12.2 50 50 WSW 14 22 29.74 1007 10 16 0.00 0.00
10:53 am 10:53 Mostly Cloudy 76 24.4 55 12.8 48 48 SW 8 13 29.72 1007 10 16 0.00 0.00
11:53 am 11:53 Mostly Cloudy 76 24.4 54 12.2 47 47 SW 5 7 29.69 1005 10 16 0.00 0.03
12:53 pm 12:53 Mostly Cloudy 83 28.3 54 12.2 37 37 SW 5 7 29.66 1005 10 16 0.00 0.00
1:53 pm 13:53 Mostly Cloudy 85 29.4 53 11.7 33 33 WSW 8 13 29.65 1004 10 16 0.00 0.00
2:53 pm 14:53 Mostly Cloudy 84 28.9 53 11.7 34 34 SSW 9 15 29.64 1004 10 16 0.00 0.00
3:53 pm 15:53 Cloudy 84 28.9 55 12.8 37 37 WSW 8 13 29.63 1004 10 16 0.00 0.00
4:53 pm 16:53 Cloudy 84 28.9 56 13.3 38 38 WSW 3 6 29.62 1003 10 16 0.00 0.00
5:53 pm 17:53 Cloudy 82 27.8 51 10.6 34 34 WNW 14 22 29.62 1003 10 16 0.00 0.00
6:53 pm 18:53 Cloudy 80 26.7 52 11.1 38 38 NW 13 20 29.63 1003 10 16 0.00 0.00
7:53 pm 19:53 Cloudy 77 25 50 10 39 39 NW 8 13 29.60 1003 10 16 0.00 0.00
8:53 pm 20:53 Mostly Cloudy 75 23.9 51 10.6 43 43 W 3 6 29.60 1002 10 16 0.00 0.00
9:53 pm 21:53 Mostly Cloudy 75 23.9 51 10.6 43 43 SSW 6 9 29.60 1003 10 16 0.00 0.00
10:53 pm 22:53 Mostly Cloudy 74 23.3 53 11.7 48 48 SW 5 7 29.61 1003 10 16 0.00 0.00
11:53 pm 23:53 Mostly Cloudy 70 21.1 54 12.2 57 57 WNW 5 7 29.62 1003 10 16 0.00 0.00

Powered by AerisWeather